Temp
55 56 56 56 57 56 56 56 56 55 56 56 56 57 57 57 54 51 48 52 47 42 47 51 52 48 51 46 40 45 44 41 40 37 41 44 43 48 47 50 49 47 44 44 47 45 47 70 70 59 63 69 72 73
55 55 56 56 56 56 56 55 55 55 55 56 56 56 56 56 55 53 46 51 51 43 44 51 52 55 55 57 51 50 44 42 43 36 39 40 40 44 42 39 53 47 55 51 52 53 64 67 65 66 68 68 71 71
55 55 55 56 56 56 55 55 55 55 55 55 56 56 56 56 54 53 48 49 47 42 45 48 50 58 61 61 64 48 48 51 47 49 44 42 37 41 37 39 46 54 60 57 56 57 65 67 70 70 71 71 73 74
55 55 56 56 55 54 54 55 55 55 55 55 56 56 56 55 54 53 48 49 47 43 38 47 65 58 64 65 64 63 57 56 54 50 42 40 39 44 40 42 42 49 53 49 54 56 61 67 68 70 72 74 74 74
54 54 55 55 54 54 54 54 55 55 55 55 56 56 56 55 53 51 49 49 50 43 38 42 52 62 64 64 62 61 59 55 49 43 41 39 46 45 49 46 43 50 47 45 45 54 52 59 66 71 69 72 72 70
53 54 55 54 54 54 54 54 55 55 55 56 56 56 55 54 52 49 43 49 51 48 41 37 55 58 62 62 59 56 55 51 50 44 45 48 54 47 42 40 48 49 52 52 50 57 58 64 69 70 70 74 72 70
54 55 54 54 54 54 54 54 55 55 55 55 54 54 54 54 52 48 45 49 51 49 41 38 45 57 60 59 58 56 57 53 50 48 47 49 50 47 44 42 51 51 52 53 56 58 57 62 61 68 71 76 71 71
54 55 54 54 54 54 54 54 55 55 55 54 53 53 53 53 52 50 51 52 52 47 44 37 43 49 52 46 49 56 51 52 50 48 51 48 47 47 41 44 49 52 54 53 54 59 58 65 63 66 70 72 68 67
54 55 54 54 53 54 54 55 55 55 54 54 53 53 55 52 49 49 55 54 52 46 39 40 37 37 49 46 47 47 48 41 50 46 48 47 42 39 40 43 46 50 50 52 56 59 59 60 60 63 65 67 66 65
54 54 54 53 53 55 55 55 55 54 54 53 52 48 46 51 56 54 48 45 46 46 43 38 45 39 52 47 44 42 45 41 37 43 50 43 38 44 47 48 49 50 51 54 52 54 58 56 58 61 63 65 66 65
54 54 54 53 53 54 55 56 55 54 54 52 50 49 52 56 50 45 42 41 43 39 44 45 44 43 55 45 43 45 41 38 33 39 37 37 37 41 47 47 50 51 52 54 57 60 63 58 58 60 62 66 67 67
54 54 54 53 53 54 55 55 54 55 57 55 56 57 53 47 43 39 38 38 34 37 46 45 48 50 52 52 46 45 40 37 34 42 39 36 39 43 45 47 51 53 54 56 60 61 64 65 62 61 60 64 66 66
54 54 54 53 53 54 56 56 54 55 55 61 55 52 47 49 39 46 41 44 45 43 48 51 48 50 50 52 48 45 42 39 45 42 37 38 41 43 45 48 50 54 57 60 61 64 66 65 68 65 63 64 65 64
53 53 53 53 54 55 55 55 55 55 52 55 56 41 51 50 56 55 54 53 55 55 54 52 48 47 47 45 44 41 44 45 39 35 33 40 43 45 47 48 49 49 52 54 56 57 59 60 60 61 61 62 61 61
53 53 53 55 56 56 55 55 55 57 58 60 62 45 53 60 64 65 64 62 62 59 56 49 48 48 45 43 43 42 39 35 36 36 42 45 47 47 47 47 48 49 50 51 52 53 54 57 56 56 58 59 59 61
53 53 63 59 56 54 54 54 56 60 65 67 67 61 65 62 62 63 65 62 64 60 59 54 49 46 46 45 41 38 36 34 40 45 48 49 50 49 50 50 49 51 50 51 51 52 52 53 53 55 56 56 57 56
52 67 58 55 53 53 54 64 69 66 69 68 64 70 67 65 62 63 64 63 67 62 56 57 51 50 53 47 39 44 42 46 48 51 52 52 51 51 52 53 52 53 51 51 51 51 51 52 54 54 52 53 56 55
60 70 58 54 53 59 72 66 71 72 68 69 65 67 69 69 66 65 65 66 63 60 58 55 57 51 47 44 45 50 52 54 54 52 53 54 54 54 54 53 55 56 56 54 53 53 52 51 50 50 51 51 53 54
56 56 53 53 53 57 69 74 74 65 65 69 70 71 71 69 69 69 69 66 66 65 61 57 53 49 49 52 52 53 54 54 54 55 55 56 55 55 55 54 55 55 55 56 57 56 54 54 52 52 52 52 51 53
52 53 53 54 55 65 69 68 76 69 66 69 72 70 69 69 70 70 69 67 66 63 58 55 53 54 55 56 57 56 56 56 56 54 54 56 57 56 55 54 54 54 55 55 56 54 57 56 57 56 54 52 52 51
61 66 59 59 65 64 70 71 63 63 69 63 66 66 66 67 64 67 67 69 63 61 57 60 59 59 60 59 60 59 58 58 56 55 54 54 56 56 56 55 55 56 54 54 54 54 53 53 54 57 56 54 53 53
64 61 69 66 69 72 68 72 70 71 68 66 65 63 56 53 52 60 69 64 60 61 62 61 61 60 60 59 60 61 60 60 59 58 56 57 56 55 55 55 54 53 54 53 53 53 53 55 54 56 55 54 53 53
57 63 68 70 69 59 54 73 67 70 62 65 66 62 58 55 55 67 62 61 61 64 64 63 62 64 62 61 63 63 62 61 60 58 58 59 58 57 57 56 56 53 52 52 55 54 53 51 54 54 55 55 54 53
60 66 66 67 64 53 70 67 70 69 69 64 55 58 61 55 63 55 52 57 58 64 65 62 63 63 63 62 61 60 62 62 62 59 60 59 58 55 57 58 57 56 55 56 55 53 53 54 52 55 55 54 53 52
52 52 54 40 65 66 64 65 66 66 63 66 64 61 65 67 53 47 49 56 58 61 66 65 66 66 65 64 63 62 63 64 61 59 60 60 59 59 58 58 56 56 58 55 53 53 52 53 54 54 54 53 51 53
42 60 49 65 66 65 66 64 65 65 67 66 67 70 69 54 50 50 51 59 59 58 68 68 67 66 65 65 63 63 63 65 62 60 60 63 60 58 55 53 52 53 58 56 54 52 52 54 54 54 54 53 48 52
45 60 68 72 71 69 65 71 72 68 66 65 68 67 64 48 45 51 62 65 61 68 69 71 68 69 66 66 65 66 67 65 62 61 63 63 62 61 58 54 52 53 58 58 56 54 53 53 53 53 53 53 52 52
63 67 62 68 69 71 67 67 67 67 67 66 70 63 60 56 54 59 64 70 72 73 72 70 67 69 69 68 69 67 66 67 65 65 65 64 63 61 59 59 57 50 55 56 56 56 55 54 53 53 52 51 51 52
62 68 68 63 67 69 69 69 69 73 74 72 67 66 65 67 67 67 73 76 76 73 70 70 69 70 69 68 66 67 66 64 60 56 55 54 55 57 60 59 59 58 58 56 43 49 51 52 54 53 53 52 52 52
63 70 65 66 65 65 70 76 75 72 77 79 77 69 67 64 72 71 76 76 71 69 71 73 72 71 68 66 63 62 64 63 61 59 55 53 55 59 59 58 58 58 57 57 57 57 50 54 50 53 53 52 51 51
71 70 68 68 68 73 77 80 81 79 79 79 80 73 63 61 58 63 72 72 64 69 71 72 70 71 68 66 63 59 57 60 59 58 60 60 60 59 58 58 58 58 58 57 57 56 55 54 53 52 51 50 50 50
70 68 67 65 69 76 78 75 76 74 76 75 75 66 63 59 58 62 67 70 69 70 64 68 66 62 64 62 61 61 54 60 58 58 58 58 58 58 60 59 59 59 58 58 57 56 55 53 52 52 51 51 50 50
71 72 71 71 70 70 73 73 73 74 75 73 70 59 66 67 62 59 73 73 73 70 70 69 68 66 62 61 58 55 52 52 45 39 40 39 39 46 57 59 58 59 59 58 57 56 55 54 53 53 52 52 52 51
MSLP
1022.55 1022.11 1021.69 1021.24 1020.74 1020.26 1019.78 1019.35 1018.91 1018.49 1018.13 1017.82 1017.70 1017.68 1017.71 1017.81 1018.08 1018.73 1019.14 1019.29 1019.56 1018.98 1017.70 1016.99 1016.51 1016.04 1015.26 1015.28 1015.69 1015.72 1015.71 1016.12 1015.87 1015.29 1014.59 1013.30 1012.06 1010.92 1009.87 1008.92 1008.34 1007.80 1007.40 1006.84 1005.88 1004.30 1002.21 999.45 998.04 998.83 999.77 998.85 998.26 997.63
1022.42 1021.93 1021.44 1020.95 1020.42 1019.90 1019.46 1019.05 1018.60 1018.19 1017.85 1017.66 1017.56 1017.54 1017.57 1017.68 1017.98 1018.61 1019.26 1019.41 1019.59 1019.69 1018.36 1017.40 1016.65 1016.14 1015.68 1014.92 1015.13 1015.15 1015.76 1016.16 1016.39 1016.40 1016.11 1015.24 1014.29 1013.09 1012.03 1010.48 1008.36 1007.47 1006.19 1005.77 1004.74 1003.34 1002.46 1001.22 1000.71 1000.38 999.81 999.34 998.96 998.44
1022.30 1021.76 1021.24 1020.67 1020.15 1019.70 1019.21 1018.80 1018.38 1018.00 1017.70 1017.57 1017.54 1017.47 1017.61 1017.74 1018.09 1018.65 1019.24 1019.59 1019.77 1019.48 1018.13 1016.58 1015.06 1014.48 1014.34 1014.52 1014.37 1014.74 1015.17 1015.55 1016.06 1016.21 1016.38 1016.12 1015.80 1015.42 1014.13 1012.40 1010.52 1007.64 1005.94 1005.52 1005.16 1004.69 1003.09 1002.23 1001.36 1000.78 1000.18 999.77 999.50 999.02
1022.18 1021.62 1021.05 1020.49 1020.02 1019.50 1019.04 1018.59 1018.19 1017.85 1017.64 1017.62 1017.63 1017.57 1017.67 1017.77 1018.16 1018.71 1019.22 1019.46 1019.63 1019.58 1018.53 1015.68 1013.92 1013.73 1013.25 1013.01 1013.44 1013.61 1014.07 1014.77 1015.60 1016.31 1016.68 1016.50 1016.21 1015.69 1014.92 1014.39 1012.90 1010.96 1008.67 1007.56 1005.85 1005.20 1003.94 1002.82 1002.16 1001.40 1000.70 1000.04 999.98 999.83
1022.02 1021.46 1020.88 1020.35 1019.83 1019.33 1018.85 1018.44 1018.06 1017.83 1017.79 1017.81 1017.75 1017.77 1017.86 1017.99 1018.25 1018.98 1019.27 1019.57 1019.57 1019.94 1019.14 1017.21 1014.98 1013.02 1012.84 1012.89 1013.14 1013.27 1013.53 1014.42 1015.29 1016.27 1016.72 1016.27 1015.50 1015.11 1014.30 1014.11 1012.95 1011.68 1010.91 1009.93 1008.73 1007.94 1007.19 1005.31 1003.74 1002.36 1001.49 1000.78 1000.77 1000.88
1021.88 1021.32 1020.72 1020.20 1019.67 1019.19 1018.79 1018.42 1018.14 1018.05 1018.08 1018.04 1017.98 1018.03 1018.19 1018.32 1018.71 1019.03 1019.62 1019.85 1019.80 1020.04 1019.58 1017.78 1014.88 1013.25 1012.78 1012.56 1013.14 1013.52 1013.79 1014.37 1015.28 1016.00 1016.04 1015.25 1014.04 1014.18 1014.19 1013.97 1012.63 1012.42 1011.70 1011.14 1010.08 1008.76 1007.72 1006.00 1004.39 1003.18 1002.08 1001.42 1001.48 1001.78
1021.73 1021.16 1020.61 1020.07 1019.54 1019.14 1018.74 1018.46 1018.34 1018.32 1018.36 1018.45 1018.45 1018.56 1018.68 1018.78 1018.83 1019.30 1019.62 1019.32 1019.60 1020.14 1019.71 1018.26 1015.75 1013.80 1013.45 1013.36 1013.17 1013.37 1013.60 1014.18 1014.82 1015.02 1015.02 1014.61 1014.04 1014.57 1014.12 1013.58 1011.95 1011.23 1010.92 1010.78 1010.22 1009.18 1007.57 1006.36 1005.27 1004.36 1002.98 1002.04 1002.05 1002.24
1021.57 1021.02 1020.51 1020.03 1019.52 1019.09 1018.78 1018.66 1018.60 1018.63 1018.69 1018.88 1018.95 1019.04 1018.92 1018.82 1019.19 1019.41 1019.74 1019.72 1019.87 1019.91 1019.70 1018.73 1016.40 1014.58 1014.89 1014.65 1013.52 1013.28 1013.81 1013.97 1014.51 1014.70 1014.10 1013.84 1013.56 1013.61 1014.30 1014.55 1013.14 1012.33 1011.71 1011.58 1010.90 1009.86 1008.46 1007.09 1006.16 1005.20 1003.74 1002.87 1002.73 1002.78
1021.42 1020.88 1020.43 1020.01 1019.54 1019.07 1018.88 1018.92 1018.95 1019.02 1019.10 1019.27 1019.32 1019.36 1019.21 1019.21 1019.15 1019.60 1019.76 1019.90 1019.88 1020.19 1019.59 1018.84 1017.40 1016.12 1015.85 1015.45 1014.68 1014.14 1014.27 1014.74 1014.71 1014.27 1013.88 1014.22 1015.06 1014.85 1015.29 1014.73 1014.15 1013.43 1012.87 1011.56 1009.39 1007.65 1008.06 1007.57 1006.87 1005.51 1004.86 1004.00 1003.47 1003.41
1021.27 1020.74 1020.33 1020.00 1019.61 1019.21 1019.10 1019.14 1019.26 1019.42 1019.50 1019.66 1019.76 1019.59 1019.36 1019.68 1019.78 1020.01 1020.24 1019.95 1019.67 1019.54 1019.37 1018.58 1017.60 1016.40 1015.04 1014.70 1014.74 1015.27 1014.90 1015.12 1015.10 1014.41 1013.83 1014.36 1015.62 1016.01 1015.80 1015.11 1013.72 1012.22 1011.52 1010.68 1009.45 1008.42 1008.10 1007.63 1006.82 1006.12 1005.37 1004.42 1003.98 1003.72
1021.08 1020.59 1020.16 1019.86 1019.63 1019.34 1019.21 1019.17 1019.32 1019.56 1019.86 1019.89 1019.28 1019.21 1019.83 1019.87 1019.96 1019.70 1019.36 1019.44 1019.00 1018.65 1018.21 1017.54 1016.97 1015.87 1014.28 1014.06 1014.48 1015.06 1015.20 1015.64 1015.70 1015.56 1015.36 1015.09 1014.73 1015.67 1015.02 1014.27 1013.21 1011.88 1010.78 1009.71 1009.28 1008.91 1007.91 1007.69 1007.58 1006.75 1005.60 1004.69 1004.48 1003.96
1020.77 1020.27 1019.86 1019.58 1019.40 1019.24 1019.09 1019.13 1019.24 1019.23 1018.73 1018.92 1018.91 1018.97 1019.53 1019.56 1019.00 1018.64 1017.98 1018.38 1018.26 1017.34 1016.66 1016.42 1015.49 1014.98 1014.32 1014.18 1014.40 1014.90 1015.18 1016.12 1016.06 1016.26 1016.38 1016.65 1016.88 1016.01 1014.42 1013.94 1013.14 1011.93 1010.66 1010.02 1009.32 1008.75 1007.91 1007.47 1007.24 1006.80 1006.32 1005.67 1005.17 1004.70
1020.37 1019.85 1019.37 1019.02 1018.86 1018.79 1018.65 1018.67 1018.83 1018.63 1018.74 1017.78 1018.14 1017.84 1018.16 1017.64 1016.96 1016.11 1016.32 1015.52 1015.35 1015.86 1015.62 1015.11 1014.85 1014.76 1014.42 1014.44 1014.66 1015.14 1014.98 1015.76 1015.97 1015.98 1017.09 1017.83 1017.53 1016.51 1014.86 1013.51 1012.35 1011.07 1010.03 1009.06 1008.28 1007.46 1007.17 1006.89 1006.60 1006.51 1006.41 1006.09 1005.98 1005.69
1019.84 1019.24 1018.66 1018.15 1017.87 1017.98 1018.05 1018.09 1018.34 1018.76 1018.77 1017.00 1015.40 1016.08 1015.56 1015.02 1013.47 1013.00 1013.22 1013.12 1013.00 1013.37 1013.77 1014.39 1014.75 1015.09 1015.34 1015.09 1015.48 1015.45 1015.70 1015.38 1016.52 1017.17 1017.95 1017.69 1017.32 1016.70 1015.60 1014.42 1012.74 1011.93 1010.78 1009.72 1009.08 1008.78 1008.40 1008.09 1007.88 1007.67 1007.34 1007.10 1006.67 1006.65
1019.24 1018.48 1017.92 1017.28 1016.94 1017.05 1017.25 1017.43 1017.74 1017.94 1016.95 1014.80 1013.71 1014.14 1013.28 1012.33 1011.98 1011.67 1011.34 1011.41 1011.86 1012.65 1013.19 1014.16 1014.68 1014.77 1015.05 1015.34 1015.82 1016.05 1016.24 1016.75 1017.29 1017.44 1017.26 1017.02 1016.73 1016.20 1015.48 1015.25 1014.14 1013.30 1012.55 1011.71 1010.92 1010.15 1009.94 1009.47 1009.02 1008.86 1008.72 1008.13 1007.86 1007.66
1018.72 1017.75 1016.96 1016.88 1016.46 1015.94 1016.20 1016.73 1017.13 1016.52 1014.50 1012.83 1012.01 1012.02 1011.76 1011.51 1011.33 1011.16 1010.90 1011.04 1011.00 1011.59 1012.14 1012.53 1013.26 1014.00 1014.35 1015.01 1015.80 1016.46 1016.65 1016.50 1016.58 1016.42 1016.28 1016.20 1015.84 1015.42 1015.16 1015.10 1014.52 1013.72 1012.99 1012.69 1012.24 1011.76 1011.23 1010.80 1010.28 1009.88 1009.56 1009.28 1009.15 1009.02
1018.17 1016.84 1016.75 1016.52 1015.94 1014.99 1014.66 1014.93 1014.46 1013.88 1011.76 1011.50 1011.26 1010.98 1010.92 1010.80 1010.79 1010.66 1010.68 1011.00 1010.84 1010.98 1011.31 1011.51 1012.08 1012.88 1013.61 1014.58 1015.54 1015.74 1015.47 1015.34 1015.45 1015.55 1015.42 1015.32 1015.24 1014.95 1014.55 1014.22 1014.02 1013.53 1013.36 1012.86 1012.83 1012.18 1011.84 1011.93 1011.53 1010.88 1010.26 1010.45 1010.16 1010.16
1017.80 1015.92 1016.16 1016.54 1016.58 1015.10 1013.98 1013.99 1012.73 1011.47 1010.63 1010.24 1010.29 1010.33 1010.36 1010.28 1010.40 1010.98 1010.76 1010.75 1011.12 1011.34 1011.62 1011.87 1012.25 1013.11 1013.76 1014.66 1015.01 1015.12 1014.95 1014.66 1014.66 1014.86 1014.77 1014.69 1014.75 1014.62 1014.30 1014.02 1013.46 1013.03 1012.86 1012.83 1012.66 1012.81 1012.45 1012.01 1011.95 1011.93 1011.40 1011.10 1010.90 1010.79
1017.83 1017.24 1016.58 1016.63 1017.25 1016.41 1013.84 1011.92 1011.35 1011.07 1010.53 1010.01 1009.80 1009.80 1009.98 1010.14 1010.30 1010.34 1010.46 1010.63 1010.94 1011.26 1011.90 1012.16 1012.65 1013.50 1014.18 1014.61 1014.74 1014.91 1014.90 1014.72 1014.49 1014.43 1014.35 1014.14 1014.36 1014.37 1014.20 1014.04 1013.76 1013.48 1013.30 1013.01 1012.84 1012.60 1012.42 1012.41 1012.20 1012.09 1012.07 1011.76 1011.55 1011.44
1017.08 1016.26 1015.55 1015.96 1016.48 1015.35 1013.04 1011.42 1010.76 1010.80 1010.08 1009.42 1009.42 1009.66 1009.89 1010.11 1010.24 1010.20 1010.21 1010.35 1010.54 1011.02 1011.98 1012.77 1013.36 1013.77 1014.10 1014.46 1014.50 1014.69 1014.78 1014.56 1014.30 1014.40 1014.32 1014.09 1013.97 1014.09 1014.09 1014.11 1014.12 1013.91 1013.68 1013.51 1013.31 1013.09 1012.71 1012.46 1012.34 1012.30 1012.46 1012.46 1012.38 1012.32
1015.79 1014.87 1015.08 1015.51 1015.32 1014.46 1012.58 1011.01 1010.88 1010.64 1010.01 1009.86 1009.89 1010.12 1009.91 1010.04 1010.14 1010.23 1010.32 1010.48 1010.82 1011.40 1011.90 1012.48 1013.26 1013.74 1013.90 1014.18 1014.29 1014.24 1014.31 1014.26 1014.24 1014.28 1014.22 1014.04 1013.87 1013.86 1014.06 1014.14 1014.20 1014.37 1014.28 1014.16 1013.90 1013.64 1013.41 1013.32 1012.99 1012.61 1012.44 1012.48 1012.43 1012.22
1015.85 1014.79 1014.53 1014.36 1013.58 1012.04 1011.40 1010.30 1009.89 1009.54 1009.79 1009.77 1009.97 1010.14 1010.86 1011.93 1011.96 1010.69 1010.34 1010.86 1011.16 1011.54 1012.22 1012.59 1012.93 1013.50 1013.78 1013.86 1013.94 1013.98 1013.86 1013.76 1013.89 1013.84 1013.89 1013.81 1013.96 1014.02 1014.10 1014.26 1014.45 1014.65 1014.74 1014.65 1014.51 1014.35 1014.08 1013.72 1013.23 1012.78 1012.48 1012.34 1012.20 1012.10
1015.81 1014.79 1014.18 1013.17 1012.05 1011.20 1010.42 1009.41 1009.33 1009.06 1009.15 1008.72 1009.09 1009.76 1010.90 1012.06 1012.14 1010.92 1010.83 1011.31 1011.63 1011.57 1012.06 1012.42 1012.65 1012.86 1013.08 1013.32 1013.46 1013.54 1013.45 1013.29 1013.38 1013.73 1013.86 1013.84 1014.06 1014.19 1014.34 1014.56 1014.84 1015.02 1015.11 1014.99 1014.80 1014.79 1014.63 1014.17 1013.73 1013.37 1012.99 1012.63 1012.53 1012.29
1014.72 1014.31 1012.80 1011.70 1011.09 1010.50 1009.46 1008.83 1008.47 1008.16 1008.08 1008.20 1009.40 1009.42 1010.01 1011.11 1011.28 1012.02 1012.39 1011.92 1011.66 1011.52 1011.81 1012.12 1012.27 1012.55 1012.73 1012.84 1013.06 1013.27 1013.20 1013.15 1013.48 1013.74 1013.77 1013.89 1014.12 1014.42 1014.55 1014.79 1015.09 1015.30 1015.31 1015.28 1015.21 1015.18 1015.07 1014.70 1014.11 1013.83 1013.40 1013.06 1012.98 1012.83
1014.83 1013.63 1012.62 1011.47 1010.24 1009.11 1008.62 1007.96 1007.54 1007.54 1007.39 1007.30 1007.65 1008.44 1008.25 1009.09 1011.16 1012.57 1012.74 1012.36 1011.76 1011.53 1011.12 1011.32 1011.29 1011.30 1011.35 1011.81 1012.67 1013.10 1013.18 1013.40 1013.56 1013.57 1013.60 1013.61 1014.01 1014.38 1014.74 1015.00 1015.46 1015.52 1015.46 1015.60 1015.69 1015.57 1015.52 1015.07 1014.52 1014.16 1013.84 1013.79 1013.76 1013.40
1013.88 1012.00 1011.13 1009.66 1008.83 1008.26 1007.44 1006.83 1006.56 1006.49 1006.43 1006.32 1006.41 1006.40 1007.23 1010.09 1011.58 1012.66 1012.21 1011.52 1011.68 1011.77 1010.61 1010.61 1010.68 1010.76 1011.40 1011.86 1012.39 1012.77 1013.06 1013.27 1013.52 1013.59 1013.49 1013.76 1014.19 1014.65 1015.04 1015.36 1015.76 1016.07 1015.88 1015.96 1016.04 1015.92 1015.67 1015.24 1014.87 1014.56 1014.33 1014.14 1014.13 1014.01
1012.38 1010.47 1009.07 1008.44 1007.88 1007.50 1007.03 1006.12 1005.71 1005.82 1005.60 1005.53 1005.56 1006.23 1007.60 1010.42 1011.68 1012.34 1011.63 1011.03 1011.03 1010.53 1010.22 1010.42 1010.60 1010.80 1011.42 1011.94 1012.37 1012.78 1013.04 1013.38 1013.56 1013.70 1013.95 1014.23 1014.64 1015.02 1015.29 1015.74 1016.09 1016.33 1016.18 1016.24 1016.18 1016.16 1015.92 1015.67 1015.39 1015.10 1014.85 1014.63 1014.55 1014.50
1010.27 1008.82 1008.12 1007.37 1006.86 1006.58 1006.14 1005.68 1005.29 1004.98 1005.02 1006.30 1005.36 1006.14 1007.66 1008.99 1010.08 1010.52 1009.59 1009.20 1009.22 1009.45 1009.86 1010.41 1010.80 1011.10 1011.58 1012.17 1012.65 1013.08 1013.41 1013.54 1013.77 1013.91 1014.10 1014.59 1015.03 1015.38 1015.67 1015.94 1016.15 1016.32 1016.38 1016.35 1016.32 1016.19 1016.02 1015.87 1015.78 1015.65 1015.41 1015.19 1015.06 1014.92
1008.78 1007.89 1007.60 1006.88 1006.38 1005.67 1005.31 1004.92 1004.54 1004.26 1004.58 1004.62 1005.21 1006.30 1007.67 1008.45 1008.65 1008.43 1008.51 1008.42 1008.66 1009.16 1009.68 1010.15 1010.70 1011.08 1011.72 1012.39 1013.00 1013.53 1013.91 1014.10 1014.30 1014.50 1014.71 1015.10 1015.52 1015.91 1016.03 1016.20 1016.29 1016.33 1016.18 1016.24 1016.37 1016.27 1016.05 1016.01 1015.91 1015.89 1015.54 1015.36 1015.24 1015.10
1007.32 1006.89 1006.51 1006.06 1005.62 1004.96 1004.48 1003.90 1003.72 1004.00 1003.81 1003.70 1004.66 1006.34 1007.33 1008.06 1008.08 1007.89 1007.72 1007.97 1008.29 1008.78 1009.23 1009.58 1010.08 1010.57 1011.38 1012.20 1013.10 1013.88 1014.43 1014.79 1015.01 1015.13 1015.34 1015.66 1015.96 1016.19 1016.36 1016.44 1016.51 1016.42 1016.28 1016.16 1016.16 1016.14 1016.02 1015.81 1015.81 1015.60 1015.50 1015.31 1015.12 1014.98
1005.86 1005.65 1005.46 1005.20 1004.64 1004.13 1003.65 1003.30 1003.35 1003.55 1003.72 1003.58 1003.97 1005.16 1007.22 1008.53 1009.14 1009.11 1008.14 1008.17 1008.28 1008.62 1009.12 1009.51 1010.12 1010.66 1011.38 1012.11 1012.99 1013.78 1014.84 1015.58 1015.91 1016.02 1015.86 1016.12 1016.36 1016.51 1016.58 1016.65 1016.60 1016.59 1016.39 1016.25 1016.16 1016.25 1016.24 1016.11 1016.06 1015.93 1015.73 1015.56 1015.30 1014.96
1004.67 1004.65 1004.52 1004.21 1003.78 1003.36 1003.23 1003.33 1003.31 1003.37 1003.12 1003.22 1004.00 1006.36 1007.29 1008.98 1009.18 1008.60 1008.18 1008.30 1008.49 1008.31 1008.67 1009.49 1010.35 1011.48 1012.28 1013.18 1013.53 1014.09 1014.93 1015.83 1016.32 1016.54 1016.66 1016.86 1016.97 1016.90 1016.89 1016.93 1016.87 1016.70 1016.46 1016.33 1016.26 1016.38 1016.42 1016.35 1016.20 1015.99 1015.81 1015.55 1015.26 1014.92
1003.72 1003.64 1003.60 1003.34 1003.08 1002.87 1002.84 1002.86 1003.00 1002.79 1002.82 1003.05 1003.80 1004.80 1006.09 1007.08 1007.85 1008.14 1007.21 1007.02 1007.34 1008.01 1008.68 1009.66 1010.62 1011.68 1012.62 1013.67 1014.64 1015.42 1016.13 1016.76 1017.10 1017.31 1017.44 1017.59 1017.58 1017.47 1017.44 1017.38 1017.23 1017.02 1016.70 1016.53 1016.46 1016.37 1016.31 1016.16 1015.95 1015.66 1015.29 1014.90 1014.56 1014.22
Wind_Speed
15 13 13 13 15 16 16 15 15 14 14 12 8 7 6 6 14 5 1 1 1 2 8 9 11 9 6 2 2 4 0 3 3 2 4 7 5 6 9 10 12 9 6 5 5 4 8 16 10 8 5 7 7 13
15 14 14 15 16 16 16 16 14 14 12 9 6 5 4 4 16 8 2 2 2 1 6 10 15 16 14 11 4 2 4 3 2 3 4 4 4 5 10 6 10 12 10 8 6 6 2 10 8 5 7 6 11 14
15 14 15 17 17 19 16 16 14 13 10 7 5 4 2 2 17 7 3 2 2 2 6 5 7 13 13 14 12 5 3 4 3 3 2 3 2 3 5 6 9 9 4 8 8 11 9 11 10 8 8 7 11 10
16 15 17 20 18 16 15 15 13 11 7 6 5 3 1 3 16 9 3 2 1 1 3 6 8 9 12 6 11 9 5 3 6 3 2 1 2 4 3 8 16 9 13 11 3 16 12 16 13 9 10 7 11 13
16 17 17 18 16 16 15 13 10 7 6 6 5 5 4 5 10 6 3 2 1 0 3 8 16 6 10 7 5 4 3 6 2 2 1 3 3 3 4 3 7 4 6 6 3 10 6 13 13 18 15 7 13 14
19 17 20 17 15 15 15 12 8 6 7 7 8 8 9 11 13 2 1 2 2 1 2 5 6 7 9 4 6 3 3 4 3 4 3 3 6 1 2 2 3 5 8 6 6 15 13 14 12 19 17 9 12 13
19 20 18 16 15 15 12 8 6 7 7 9 10 12 11 7 2 2 2 1 8 2 1 4 6 3 7 6 4 3 5 3 3 1 3 5 7 5 3 5 6 2 5 9 14 17 11 17 11 17 18 8 14 10
17 20 20 16 15 14 9 6 6 7 9 10 12 8 9 11 7 2 3 7 4 1 1 3 5 2 4 4 3 2 1 1 1 3 3 3 5 2 1 13 18 13 9 3 16 13 7 12 13 15 16 12 11 11
17 20 19 16 15 11 5 6 6 8 8 10 10 6 2 1 1 3 8 5 1 0 2 2 4 3 4 3 4 4 4 2 3 2 4 4 3 4 9 14 16 14 11 14 14 13 10 12 12 14 16 15 9 9
16 17 19 15 14 9 3 5 6 7 7 9 1 1 2 3 12 9 2 1 2 2 1 3 2 4 4 2 2 2 3 3 1 3 4 5 2 4 5 11 13 17 15 15 14 12 9 9 12 14 15 14 15 7
16 16 18 15 11 9 1 6 9 11 6 3 3 2 4 7 0 2 1 2 3 2 3 3 4 5 4 2 1 1 3 3 1 4 4 5 5 11 19 16 14 16 16 16 14 15 15 5 8 9 14 15 15 9
19 18 16 15 11 8 4 7 11 5 1 4 0 5 3 2 2 3 2 1 3 4 3 3 4 4 4 3 1 2 2 1 4 2 2 4 5 20 22 19 13 11 14 14 14 15 8 8 6 6 6 8 11 13
19 20 19 16 11 8 6 8 13 11 10 3 4 5 4 4 3 3 4 3 3 5 5 4 3 2 3 3 2 4 6 4 2 2 4 4 11 15 21 18 17 13 12 10 9 9 6 7 4 6 8 9 11 12
19 19 19 17 12 9 8 6 9 6 4 5 6 5 2 5 5 6 4 1 3 4 4 4 1 4 3 3 1 3 3 4 4 4 4 5 8 11 15 17 19 17 15 16 15 16 16 14 11 13 12 12 10 11
20 22 20 10 10 8 8 8 9 5 5 5 3 1 4 2 6 8 3 1 3 4 5 3 1 1 1 2 3 4 5 5 3 2 3 4 7 7 7 12 17 15 14 16 15 14 14 12 12 12 12 12 14 12
21 22 2 7 12 16 6 8 8 5 5 4 1 4 3 4 5 6 6 9 3 5 4 3 5 4 3 3 5 4 3 2 0 2 3 2 3 7 2 2 3 9 8 6 11 11 13 14 12 10 11 13 13 14
19 4 5 12 23 22 4 5 6 8 4 3 2 2 3 3 2 2 4 6 7 8 6 4 5 6 2 4 2 3 2 2 4 3 2 2 2 6 7 3 6 5 4 3 4 7 9 6 5 8 12 10 11 13
6 2 14 18 17 8 4 5 5 3 5 3 3 3 1 1 3 7 2 4 5 5 5 5 4 8 4 8 6 3 4 3 4 4 2 1 3 5 5 8 10 5 3 4 4 2 2 4 5 4 6 7 8 10
14 16 25 21 8 4 4 4 3 3 3 2 3 2 1 2 3 2 4 4 5 4 3 4 4 5 5 3 4 4 4 4 3 2 3 1 6 2 5 7 8 7 8 8 11 4 2 5 8 5 5 5 5 5
23 25 24 12 9 4 5 3 2 3 4 2 1 1 2 1 1 3 3 3 3 4 3 2 2 3 4 3 3 4 2 4 2 4 4 2 2 3 4 5 6 7 7 8 6 9 7 8 5 4 6 6 5 6
14 4 5 7 6 6 5 2 2 4 4 0 3 3 4 2 3 2 1 2 3 2 3 3 5 3 5 4 1 1 1 2 2 3 2 3 2 3 3 4 6 6 6 7 7 7 8 6 6 7 5 5 3 2
5 3 3 7 4 6 6 5 3 3 3 3 2 2 1 4 4 8 2 2 3 4 3 3 4 6 4 5 4 2 4 5 6 3 4 6 4 4 3 3 5 6 6 5 5 7 6 7 7 8 4 1 3 1
11 4 4 5 4 1 7 2 4 4 4 4 5 4 5 3 3 5 2 1 2 4 5 4 4 3 4 7 5 4 5 6 2 4 3 3 4 5 4 5 6 6 6 4 6 6 6 9 7 7 7 5 7 7
2 4 5 5 8 5 4 5 4 4 5 4 4 5 2 6 3 4 4 3 2 4 4 6 5 5 5 5 6 4 3 3 5 5 4 4 4 4 4 6 7 6 5 5 6 5 7 8 7 7 7 4 5 6
1 7 3 7 5 6 8 10 10 4 6 11 5 5 5 7 5 2 2 3 3 5 5 5 6 5 2 4 8 4 5 6 4 1 2 0 4 5 5 5 7 7 7 7 7 7 8 8 7 8 8 10 11 10
4 6 6 6 5 5 5 7 7 9 9 11 6 2 4 8 5 6 4 4 4 6 3 1 1 4 6 6 6 5 4 4 2 4 3 8 7 6 6 6 7 6 5 7 7 9 8 8 9 11 10 11 12 13
5 7 7 6 5 4 5 7 2 3 7 8 1 2 5 4 6 3 5 5 3 4 4 5 4 6 6 6 5 4 5 6 4 3 7 9 8 6 6 6 6 3 6 6 6 7 8 9 10 10 9 8 8 8
7 5 12 10 7 6 8 8 10 8 2 6 4 4 6 9 7 6 7 7 7 7 7 7 5 6 6 6 6 6 5 5 6 5 5 9 8 7 6 5 4 5 3 3 4 5 5 5 7 9 9 8 6 6
6 6 8 11 9 7 6 8 10 5 5 3 1 4 4 3 4 2 5 8 8 7 7 7 7 7 7 6 6 6 5 4 4 6 7 6 6 6 5 5 5 4 4 4 0 4 6 3 4 4 7 5 5 5
9 8 10 12 13 11 10 5 1 7 5 3 5 4 4 1 3 3 1 3 7 7 6 6 5 6 9 9 9 9 7 6 5 5 5 5 6 5 5 4 4 4 3 4 6 6 9 4 3 2 6 6 5 6
5 7 10 10 10 9 9 7 4 2 6 3 3 7 7 3 7 7 3 2 4 7 7 7 7 6 7 7 10 10 8 6 7 7 6 5 5 4 4 4 3 3 4 4 4 7 7 7 7 8 9 9 11 9
8 10 9 13 10 7 5 4 4 6 9 5 2 9 5 5 9 2 3 2 6 6 8 11 10 10 10 9 9 10 12 8 6 6 7 5 4 4 5 4 3 3 4 6 5 7 7 7 6 6 6 8 8 10
7 8 10 10 8 7 3 1 4 4 3 3 4 9 11 8 4 5 4 6 5 9 8 11 11 11 13 13 11 10 10 8 10 10 10 8 7 7 5 5 4 5 6 5 5 5 5 6 6 7 8 7 8 9
Wind_Direction
337 334 325 317 319 323 327 328 322 321 319 314 304 288 276 289 166 133 142 82 343 293 294 301 332 322 324 134 145 287 224 13 314 43 262 275 273 268 263 246 250 219 210 194 242 249 269 345 30 58 301 324 341 3
334 331 324 323 328 331 336 330 330 327 331 330 319 305 266 288 174 150 110 98 97 182 269 314 283 264 264 285 320 130 166 165 137 286 28 326 338 329 354 301 325 240 221 197 206 213 51 33 62 10 349 336 17 14
333 329 327 332 337 341 332 335 336 339 345 349 347 333 249 341 165 146 98 105 81 304 282 242 256 230 223 233 247 243 102 202 112 341 5 16 320 27 337 307 321 316 245 224 232 6 32 31 19 9 343 0 25 1
333 331 336 344 344 337 336 336 342 348 8 15 8 33 88 109 171 151 133 156 100 345 292 293 313 344 315 190 224 227 168 180 113 97 56 67 271 157 260 296 296 280 317 326 201 19 334 11 349 341 329 33 32 19
334 334 339 347 342 337 338 341 351 15 35 43 48 85 73 112 154 93 92 178 163 80 330 313 296 280 237 237 231 316 240 168 132 117 135 240 254 197 227 225 247 326 349 4 329 346 309 318 343 354 358 29 54 35
343 343 348 346 341 339 344 351 18 49 53 64 84 77 83 96 116 119 99 188 173 87 303 300 336 313 349 120 137 198 256 98 130 145 228 247 239 354 291 246 290 358 270 322 292 311 303 291 360 351 345 49 64 51
345 347 348 349 342 344 351 14 67 69 73 86 88 96 95 106 73 26 24 55 142 142 284 298 303 305 354 329 242 201 217 157 177 193 225 250 256 184 241 261 288 294 291 311 310 312 329 339 2 337 338 29 64 50
345 348 352 352 345 346 1 69 90 93 101 101 111 110 102 99 111 101 52 116 145 203 274 304 285 350 47 305 272 153 172 119 147 212 272 317 318 179 242 335 338 356 333 186 297 289 311 336 350 337 343 13 56 45
342 347 352 354 346 350 41 106 103 115 116 123 131 140 233 26 32 91 146 151 278 318 338 308 308 320 130 277 313 12 24 26 311 249 228 122 18 11 321 320 323 323 316 296 297 328 342 336 308 347 346 5 10 50
340 340 351 354 350 11 70 117 117 123 124 132 185 268 101 61 108 128 174 250 212 181 203 242 255 264 287 194 177 273 151 212 237 291 343 45 174 227 295 321 313 311 317 310 319 320 316 329 321 336 343 351 4 52
336 337 344 346 345 350 79 153 135 124 133 218 238 83 65 149 22 360 295 312 341 263 195 240 240 289 288 324 353 132 10 63 139 29 46 318 334 343 329 330 319 308 307 302 296 297 286 202 268 318 337 354 354 9
333 333 334 337 329 328 300 195 177 204 197 299 347 116 140 213 210 250 215 147 218 241 174 240 250 238 302 338 321 166 109 216 66 148 54 3 328 327 329 332 329 300 290 284 272 276 263 290 222 277 305 327 359 7
325 328 327 323 307 284 282 221 208 256 324 260 207 184 186 154 279 37 354 266 236 168 224 210 289 327 344 351 37 346 342 79 232 56 36 18 324 328 331 342 349 348 331 305 306 275 270 305 322 26 25 22 21 23
318 314 311 311 293 263 242 246 206 209 219 236 194 28 298 312 343 3 103 234 162 203 143 120 3 25 2 347 5 21 341 42 54 31 359 289 307 331 336 355 5 4 6 18 33 34 29 25 32 36 29 31 24 31
318 316 317 300 280 266 244 223 192 188 256 252 97 291 265 323 38 8 88 54 145 126 134 94 91 311 52 66 12 32 34 46 41 320 297 302 287 290 324 19 5 2 18 27 20 32 27 29 40 37 26 34 29 24
322 311 278 324 313 309 264 173 174 219 239 240 4 355 14 358 41 19 21 34 93 178 198 178 149 168 82 86 45 40 43 326 159 222 213 252 294 314 322 153 5 352 347 19 64 40 32 18 19 31 40 41 41 37
320 235 159 3 349 320 161 189 198 220 231 192 195 54 356 6 38 51 51 58 34 14 37 10 29 46 124 51 96 183 348 154 151 153 151 222 252 310 318 310 220 227 266 340 324 56 72 4 360 27 44 28 39 44
245 313 354 354 346 289 197 209 254 260 267 173 164 115 79 312 40 16 62 85 69 52 24 15 50 51 57 40 51 34 17 5 125 148 184 205 111 318 336 341 337 322 308 207 199 141 44 60 16 348 34 31 45 50
281 296 297 300 308 304 271 209 204 283 275 354 164 216 230 106 103 257 124 123 124 112 58 355 53 53 60 48 47 42 4 350 4 161 179 79 137 327 21 357 353 6 31 17 29 26 94 53 39 43 53 25 25 47
285 273 268 268 200 249 260 260 173 295 275 247 252 242 113 70 135 297 140 111 120 102 101 83 74 69 82 59 14 112 19 324 4 34 349 59 70 112 56 46 16 5 20 16 14 26 23 22 16 79 73 46 37 32
311 108 100 168 204 222 279 316 200 206 292 230 267 349 220 194 231 195 356 114 76 67 76 89 113 105 110 123 70 332 133 288 307 107 313 328 86 56 85 68 58 28 19 14 8 8 21 9 0 339 97 87 58 38
269 347 266 188 264 216 221 222 247 193 236 225 291 92 6 76 280 300 108 5 97 88 77 97 132 155 177 179 157 258 262 270 226 115 24 341 52 38 44 70 66 49 13 24 21 9 4 353 354 349 16 146 147 166
302 199 223 247 251 298 252 224 247 228 205 233 151 183 104 149 243 311 68 91 96 112 139 151 160 176 191 171 181 180 263 288 89 91 37 22 64 41 34 63 68 53 14 20 28 9 3 343 348 358 350 16 16 356
178 255 247 239 182 235 233 216 231 247 282 283 115 286 206 164 189 46 348 330 192 145 160 173 180 207 205 213 187 191 289 16 97 82 42 36 58 52 38 62 59 47 4 43 27 16 7 347 349 353 336 17 14 346
284 272 151 272 270 235 228 259 243 221 267 277 230 180 209 159 107 129 199 277 288 281 159 199 220 221 138 131 113 111 67 60 17 78 135 54 86 64 45 58 68 38 13 37 18 26 2 339 352 349 22 45 18 16
221 236 174 235 209 229 239 237 239 241 249 255 228 228 78 64 56 297 218 202 228 272 214 110 38 102 82 91 92 88 108 118 53 13 26 76 68 59 43 50 51 24 33 38 18 19 350 352 1 15 11 27 27 16
235 249 219 222 281 289 279 283 148 250 270 279 324 93 89 98 181 242 290 214 198 211 95 73 50 79 99 106 111 93 66 99 74 37 84 80 77 60 57 68 65 20 47 32 27 26 5 5 5 11 11 16 29 23
239 254 233 257 232 227 255 274 281 263 292 339 267 108 147 181 176 217 215 182 176 137 120 103 77 71 77 86 82 76 54 80 74 37 96 87 79 67 56 74 71 80 99 48 11 31 8 13 16 13 7 21 26 5
235 226 250 270 276 248 226 253 255 244 176 200 181 142 119 136 188 133 160 149 141 139 140 141 140 137 132 114 105 93 75 49 71 76 68 63 58 61 62 57 51 34 7 128 123 299 325 357 40 3 0 25 21 346
237 225 238 244 247 262 268 263 2 20 282 165 100 96 117 43 346 47 303 150 137 148 156 142 166 153 156 145 127 107 86 72 47 54 78 76 74 67 63 57 50 23 12 33 45 26 11 32 39 336 19 8 10 344
228 224 230 236 243 242 254 258 150 153 288 265 230 112 99 73 18 303 328 71 101 124 154 153 109 82 69 87 132 122 112 99 87 49 56 78 79 76 75 51 55 28 12 19 44 45 24 22 24 11 20 13 0 358
216 216 231 240 241 242 245 198 194 218 246 232 176 112 100 141 192 216 267 197 184 166 147 120 112 102 97 84 69 87 99 111 101 81 76 76 55 38 66 61 40 358 359 44 52 60 38 37 17 2 357 350 335 330
211 215 229 238 238 236 256 82 315 251 268 246 164 171 218 140 135 236 249 192 168 153 138 121 115 114 105 99 100 96 90 94 99 94 87 77 57 37 56 33 19 4 13 32 37 43 28 351 337 326 304 299 314 321